ギャラッド彗星

C/2007 Q1 ( Garradd )

English version
Home page
Updated on December 30, 2007

---------------------------------------------------------------------

・ プロフィール

発見日 2007年8月21日
発見光度 19.4等
発見者 G. J. Garradd (Siding Spring Survey)

・ 軌道要素

T 2006 Dec. 10.844 TT                                   MPC
q   2.97763              (2000.0)            P               Q
                   Peri.  281.837       +0.218339       +0.970495
                   Node     5.932       +0.278558       +0.038501
e   1.0            Incl.   81.871       -0.935272       +0.238028
From 41 observations 2007 Aug. 21-Sept. 14.

・ 光度変化

        m1 = 11.0 + 5 logΔ + 10.0 log r

---------------------------------------------------------------------

軌道要素はM.P.E.C. 2007-S20に掲載されたものです。
光度グラフはComet for Windowsで作成したものです。

---------------------------------------------------------------------

Copyright(C) Seiichi Yoshida (comet@aerith.net). All rights reserved.